This is the latest recevied weather packets stored in our database for station/object KF0EZB. If no packets are shown the sender has not sent any weather packets the latest 10 day(s).
| Time | Temp. | Humidity | Pressure | Rain* | Wind** | Luminosity | Snow |
|---|---|---|---|---|---|---|---|
| 1778000949 | 12.22° C | 54% | 1013.2 hPa | 0 mm | - | 405 W/m² | - |
| 1778000646 | 12.22° C | 54% | 1013.1 hPa | 0 mm | - | 583 W/m² | - |
| 1778000341 | 12.22° C | 55% | 1012.9 hPa | 0 mm | - | 446 W/m² | - |
| 1778000037 | 11.67° C | 55% | 1013.1 hPa | 0 mm | - | 351 W/m² | - |
| 1777999733 | 12.22° C | 56% | 1012.8 hPa | 0 mm | - | 362 W/m² | - |
| 1777999429 | 11.67° C | 56% | 1012.7 hPa | 0 mm | - | 522 W/m² | - |
| 1777999127 | 11.67° C | 56% | 1012.8 hPa | 0 mm | - | 437 W/m² | - |
| 1777998826 | 11.67° C | 56% | 1012.9 hPa | 0 mm | - | 343 W/m² | - |
| 1777998524 | 11.67° C | 56% | 1012.8 hPa | 0 mm | - | 259 W/m² | - |
| 1777998220 | 11.67° C | 55% | 1012.6 hPa | 0 mm | - | 386 W/m² | - |
| 1777997918 | 11.67° C | 55% | 1012.9 hPa | 0 mm | - | 375 W/m² | - |
| 1777997614 | 11.67° C | 56% | 1013 hPa | 0 mm | - | 407 W/m² | - |
| 1777997311 | 11.11° C | 57% | 1013 hPa | 0 mm | - | 296 W/m² | - |
| 1777997010 | 10.56° C | 57% | 1013 hPa | 0 mm | - | 199 W/m² | - |
| 1777996706 | 10.56° C | 56% | 1013 hPa | 0 mm | - | 137 W/m² | - |
| 1777996402 | 10.56° C | 56% | 1013.1 hPa | 0 mm | - | 133 W/m² | - |
| 1777996099 | 10.56° C | 56% | 1013.1 hPa | 0 mm | - | 197 W/m² | - |
| 1777995795 | 10.56° C | 56% | 1012.8 hPa | 0 mm | - | 155 W/m² | - |
| 1777995491 | 11.11° C | 56% | 1012.7 hPa | 0 mm | - | 169 W/m² | - |
| 1777995189 | 10.56° C | 57% | 1012.8 hPa | 0 mm | - | 166 W/m² | - |
| 1777994886 | 11.11° C | 56% | 1012.8 hPa | 0 mm | - | 187 W/m² | - |
| 1777994582 | 10.56° C | 56% | 1012.8 hPa | 0 mm | - | 202 W/m² | - |
| 1777994276 | 10.56° C | 56% | 1012.8 hPa | 0 mm | - | 147 W/m² | - |
| 1777993974 | 10.56° C | 57% | 1012.9 hPa | 0 mm | - | 130 W/m² | - |
| 1777993670 | 10.56° C | 56% | 1012.6 hPa | 0 mm | - | 197 W/m² | - |
* Rain latest hour (hover to see other rain measurements)
** Current wind speed in m/s (hover to see current wind gust speed)